[[{"header":{"parameterUnit":"m.s-1","parameterCategory":1,"la1":30.2991,"la2":30.254,"lo1":-89.0895,"lo2":-89.0444,"dy":0.0017,"dx":0.0017,"nx":28,"ny":28,"refTime":"2025-11-12T03:00:00:Z","depth":0,"parameterNumber":2,"parameterNumberName":"U-component_of_WINDS"},"data":[0,0,0,0,0,0,0,0,0,0,0,0,0,0,0,0,0,0,0,0,0,0,0,0,0,0,0,0,0,0,0,0,0,0,0,0,0,0,0,0,0,0,0,0,0,0,0,0,0,0,0,0,0,0,0,0,0,0,-0.3818,-0.3818,0,-0.3777,-0.3777,-0.3776,-0.3726,-0.3725,-0.3724,-0.3723,-0.3681,-0.3681,-0.368,0,0,0,0,0,0,0,0,0,0,0,0,0,-0.3853,-0.3853,-0.3818,-0.3818,-0.3817,-0.3777,-0.3777,-0.3776,-0.3726,-0.3725,-0.3724,-0.3723,-0.3681,-0.3681,-0.368,0,0,0,0,0,0,0,0,0,0,0,0,0,-0.3828,-0.3853,-0.3818,-0.3787,-0.3784,-0.3777,-0.3777,-0.3776,-0.3726,-0.3725,-0.3724,-0.3722,-0.3681,-0.3681,-0.368,-0.3701,0,0,-0.3679,-0.3678,0,0,0,0,0,0,0,0,-0.3829,-0.3827,-0.3792,-0.3789,-0.3786,-0.3755,-0.3774,-0.3751,-0.3726,-0.3748,-0.3723,-0.3722,-0.3707,-0.3704,-0.3699,-0.3699,-0.3697,-0.3679,-0.3678,-0.3678,-0.3678,0,0,0,0,0,0,0,-0.3831,-0.3828,-0.3802,-0.3792,-0.3788,-0.3776,-0.3771,-0.3769,-0.3735,-0.3746,-0.3742,-0.3738,-0.3705,-0.37,-0.3698,-0.3696,-0.3679,-0.3678,-0.3678,-0.3677,-0.3712,-0.3713,0,0,0,0,0,0,-0.3838,-0.383,-0.3803,-0.3801,-0.3805,-0.3776,-0.377,-0.3766,-0.3734,-0.3728,-0.3739,-0.3736,-0.3701,-0.3698,-0.3696,-0.3718,-0.3678,-0.3677,-0.3677,-0.3711,-0.3712,-0.3714,0,0,0,0,0,0,-0.3839,-0.3836,-0.3805,-0.3814,-0.3809,-0.3777,-0.3772,-0.3766,-0.3761,-0.3729,-0.3723,-0.374,-0.37,-0.3697,-0.37,-0.3716,-0.3677,-0.3677,-0.3709,-0.3711,-0.3713,-0.3763,0,0,0,0,0,0,-0.384,-0.3836,-0.3844,-0.3815,-0.3809,-0.381,-0.3773,-0.3766,-0.376,-0.3755,-0.3729,-0.3723,-0.3699,-0.3701,-0.37,-0.3715,-0.3676,-0.3708,-0.371,-0.3712,-0.376,-0.3766,-0.3772,0,0,0,0,0,-0.3841,-0.3859,-0.3844,-0.3841,-0.3817,-0.3811,-0.3807,-0.3779,-0.3762,-0.3769,-0.3749,-0.3724,-0.3715,-0.3702,-0.37,-0.3715,-0.3706,-0.3709,-0.3712,-0.3757,-0.3765,-0.3772,0,0,0,0,0,0,-0.389,-0.3855,-0.3838,-0.3847,-0.3832,-0.3802,-0.381,-0.3789,-0.3779,-0.3775,-0.374,-0.3735,-0.3743,-0.3729,-0.3716,-0.3733,-0.3707,-0.371,-0.3742,-0.3749,-0.3755,-0.3758,-0.3676,0,0,0,0,0,-0.3902,-0.39,-0.3869,-0.388,-0.3873,-0.3843,-0.3839,-0.3819,-0.3802,-0.3796,-0.3776,-0.3761,-0.3755,-0.3751,-0.3744,-0.3758,-0.3751,-0.3767,-0.3773,-0.3778,-0.3781,-0.3788,-0.3795,-0.3723,-0.3723,-0.3723,0,0,-0.3926,-0.3907,-0.3907,-0.3889,-0.3875,-0.3874,-0.3838,-0.3838,-0.3836,-0.3796,-0.3798,-0.3783,-0.3764,-0.3773,-0.3776,-0.3762,-0.38,-0.3782,-0.3786,-0.3786,-0.3792,-0.3798,-0.3805,-0.3725,-0.3724,-0.3724,0,0,-0.397,-0.3955,-0.3963,-0.395,-0.393,-0.391,-0.3912,-0.3885,-0.3874,-0.3876,-0.3846,-0.3844,-0.3833,-0.3821,-0.3814,-0.3855,-0.3832,-0.3853,-0.3885,-0.3892,-0.3898,-0.3903,-0.3918,-0.3924,-0.3856,-0.3856,-0.3856,0,-0.4003,-0.3999,-0.3969,-0.3971,-0.3964,-0.3928,-0.3936,-0.3925,-0.3904,-0.39,-0.3885,-0.3872,-0.3856,-0.3862,-0.3873,-0.3868,-0.3869,-0.3856,-0.39,-0.3904,-0.3908,-0.3922,-0.3928,-0.3859,-0.3858,-0.3858,-0.3858,0,-0.4041,-0.4039,-0.4048,-0.4028,-0.4022,-0.4027,-0.3999,-0.3996,-0.3977,-0.3959,-0.3962,-0.3942,-0.3931,-0.3931,-0.3911,-0.3934,-0.3926,-0.3906,-0.3879,-0.3918,-0.3931,-0.3936,-0.3863,-0.3862,-0.3861,-0.386,0,0,-0.4113,-0.4078,-0.4082,-0.4073,-0.4049,-0.4047,-0.405,-0.4039,-0.4038,-0.4025,-0.4027,-0.402,-0.4002,-0.3993,-0.3973,-0.3979,-0.4014,-0.3958,-0.3957,-0.3969,-0.4038,-0.4054,-0.406,-0.3998,-0.3999,-0.4,-0.404,0,-0.4153,-0.4156,-0.413,-0.4141,-0.414,-0.4106,-0.4109,-0.4095,-0.4078,-0.4075,-0.4056,-0.4052,-0.4028,-0.4022,-0.4027,-0.4008,-0.4027,-0.4005,-0.4001,-0.4001,-0.4006,-0.4067,-0.4083,-0.4121,-0.4045,-0.4045,-0.4046,0,-0.4198,-0.4188,-0.4199,-0.4176,-0.4174,-0.4177,-0.4165,-0.4162,-0.4146,-0.4133,-0.4125,-0.4101,-0.4104,-0.4078,-0.4081,-0.4067,-0.4064,-0.4055,-0.4055,-0.4054,-0.4026,-0.4067,-0.4133,-0.4139,-0.4053,-0.4053,-0.4052,0,-0.4251,-0.424,-0.4245,-0.4239,-0.4211,-0.4214,-0.4203,-0.4185,-0.418,-0.417,-0.4167,-0.4157,-0.4152,-0.4145,-0.412,-0.4104,-0.4126,-0.4099,-0.4116,-0.4117,-0.4122,-0.4122,-0.4189,-0.4121,-0.4121,-0.412,-0.412,0,-0.4297,-0.4305,-0.4268,-0.4272,-0.428,-0.425,-0.426,-0.4245,-0.423,-0.423,-0.42,-0.4201,-0.4168,-0.4165,-0.4146,-0.4152,-0.415,-0.414,-0.4135,-0.4143,-0.4144,-0.414,-0.4137,-0.4122,-0.4122,-0.4121,-0.4121,0,-0.4357,-0.4332,-0.4336,-0.431,-0.4303,-0.4311,-0.4288,-0.4291,-0.4273,-0.4273,-0.4272,-0.4244,-0.424,-0.4214,-0.4203,-0.419,-0.4204,-0.4193,-0.4209,-0.4206,-0.4225,-0.4224,-0.4291,-0.4299,-0.4226,-0.4227,-0.4227,0,-0.4388,-0.4393,-0.4368,-0.4366,-0.4356,-0.4353,-0.4349,-0.432,-0.4316,-0.4299,-0.4303,-0.4297,-0.429,-0.4284,-0.4263,-0.4255,-0.4244,-0.4269,-0.4243,-0.4251,-0.4245,-0.4245,-0.4246,-0.4274,-0.4275,-0.4276,-0.4276,0,-0.4446,-0.4434,-0.4428,-0.4419,-0.4414,-0.4405,-0.4394,-0.4394,-0.4363,-0.436,-0.4356,-0.435,-0.434,-0.4334,-0.4323,-0.4311,-0.4289,-0.4285,-0.4289,-0.4297,-0.4306,-0.4302,-0.4224,-0.4283,-0.4282,-0.4282,-0.4282,-0.4281,-0.4492,-0.4496,-0.4479,-0.4474,-0.4463,-0.4454,-0.4455,-0.4438,-0.4433,-0.4423,-0.4406,-0.4404,-0.4388,-0.4371,-0.4362,-0.436,-0.4347,-0.4352,-0.4353,-0.4355,-0.436,-0.4307,-0.4357,-0.4357,-0.4357,-0.4357,-0.4357,0,-0.4549,-0.4537,-0.4533,-0.4519,-0.4515,-0.4495,-0.4482,-0.448,-0.4479,-0.4466,-0.446,-0.4455,-0.4449,-0.4428,-0.4421,-0.4423,-0.4413,-0.4422,-0.4422,-0.442,-0.4371,-0.4369,-0.4431,-0.4431,-0.4431,-0.4431,-0.4431,-0.4431,-0.4579,-0.4584,-0.457,-0.457,-0.4558,-0.4555,-0.455,-0.4542,-0.4531,-0.4527,-0.4523,-0.4509,-0.4493,-0.4484,-0.4478,-0.4472,-0.4471,-0.4484,-0.4474,-0.443,-0.4423,-0.4416,-0.4414,-0.4484,-0.4484,-0.4523,-0.4523,-0.4523]},{"header":{"parameterUnit":"m.s-1","parameterCategory":1,"la1":30.2991,"la2":30.254,"lo1":-89.0895,"lo2":-89.0444,"dy":0.0017,"dx":0.0017,"nx":28,"ny":28,"refTime":"2025-11-12T03:00:00:Z","depth":0,"parameterNumber":3,"parameterNumberName":"V-component_of_WINDS"},"data":[0,0,0,0,0,0,0,0,0,0,0,0,0,0,0,0,0,0,0,0,0,0,0,0,0,0,0,0,0,0,0,0,0,0,0,0,0,0,0,0,0,0,0,0,0,0,0,0,0,0,0,0,0,0,0,0,0,0,1.7491,1.749,0,1.7432,1.7432,1.7431,1.7443,1.7444,1.7445,1.7446,1.7381,1.7379,1.7376,0,0,0,0,0,0,0,0,0,0,0,0,0,1.7611,1.7608,1.7491,1.749,1.749,1.7432,1.7432,1.7431,1.7443,1.7444,1.7445,1.7447,1.7382,1.7379,1.7376,0,0,0,0,0,0,0,0,0,0,0,0,0,1.7556,1.7608,1.7491,1.7489,1.7488,1.7433,1.7431,1.743,1.7442,1.7444,1.7446,1.7447,1.7383,1.7379,1.7375,1.7317,0,0,1.7363,1.7361,0,0,0,0,0,0,0,0,1.7559,1.7551,1.749,1.7489,1.7488,1.7447,1.745,1.7392,1.7442,1.746,1.7446,1.7448,1.7402,1.7396,1.7381,1.7314,1.7311,1.7362,1.736,1.7358,1.7357,0,0,0,0,0,0,0,1.7563,1.7554,1.7468,1.7489,1.7488,1.749,1.7484,1.7439,1.7422,1.7458,1.7459,1.7452,1.7401,1.7385,1.738,1.731,1.7363,1.7359,1.7356,1.7355,1.7193,1.7191,0,0,0,0,0,0,1.7568,1.7557,1.747,1.7466,1.7528,1.7486,1.7479,1.7458,1.7423,1.7419,1.7451,1.7453,1.7391,1.7385,1.7378,1.7307,1.7358,1.7354,1.7352,1.7194,1.7192,1.719,0,0,0,0,0,0,1.757,1.756,1.7472,1.7512,1.7501,1.7482,1.7458,1.7456,1.744,1.7417,1.7414,1.7438,1.7392,1.7383,1.7332,1.7305,1.7352,1.7349,1.7197,1.7194,1.7191,1.7165,0,0,0,0,0,0,1.7574,1.7561,1.7539,1.7511,1.7499,1.7429,1.7457,1.7454,1.7434,1.7436,1.7404,1.74,1.7393,1.7338,1.7328,1.73,1.7345,1.7199,1.7195,1.7192,1.7169,1.7162,1.7156,0,0,0,0,0,1.7578,1.7533,1.7538,1.7527,1.7471,1.7427,1.742,1.7414,1.7431,1.7409,1.7394,1.7401,1.731,1.7333,1.7322,1.7292,1.7201,1.7196,1.7192,1.7171,1.7163,1.7157,0,0,0,0,0,0,1.7557,1.7529,1.7534,1.748,1.7456,1.7429,1.7401,1.7406,1.7375,1.7378,1.7371,1.7364,1.7312,1.7297,1.7323,1.7234,1.7257,1.7251,1.7245,1.7238,1.7232,1.7236,1.7342,0,0,0,0,0,1.7546,1.7514,1.7491,1.7445,1.7433,1.7419,1.7399,1.7397,1.7372,1.7361,1.7343,1.7316,1.7282,1.7259,1.7226,1.7167,1.716,1.7141,1.7135,1.713,1.7124,1.7091,1.7083,1.7177,1.7177,1.7177,0,0,1.7522,1.7504,1.7483,1.744,1.7421,1.7387,1.741,1.7373,1.7347,1.7355,1.7306,1.7292,1.7262,1.7207,1.7181,1.7192,1.7097,1.7125,1.7121,1.7117,1.7086,1.7077,1.7069,1.7174,1.7174,1.7175,0,0,1.7462,1.7445,1.7405,1.7386,1.7358,1.735,1.734,1.7313,1.7304,1.7256,1.7261,1.723,1.7171,1.7149,1.7131,1.7064,1.7069,1.7053,1.7021,1.699,1.6982,1.6976,1.6951,1.6943,1.7048,1.7048,1.7048,0,1.7436,1.7386,1.7383,1.7345,1.7326,1.7334,1.7293,1.7274,1.7236,1.7222,1.7236,1.7162,1.7142,1.7082,1.7066,1.7051,1.7039,1.7056,1.6984,1.6977,1.6971,1.6948,1.6939,1.7046,1.7046,1.7046,1.7046,0,1.7355,1.732,1.7291,1.7256,1.7233,1.7194,1.7184,1.7161,1.7161,1.7151,1.7101,1.7078,1.7041,1.7027,1.7026,1.6966,1.6974,1.6986,1.7009,1.696,1.6938,1.6929,1.7043,1.7044,1.7045,1.7045,0,0,1.7279,1.7244,1.7233,1.7218,1.7188,1.716,1.7121,1.7086,1.7067,1.704,1.7007,1.6957,1.6968,1.6947,1.6944,1.6916,1.6865,1.6931,1.693,1.6919,1.6797,1.6788,1.6778,1.6868,1.6867,1.6865,1.68,0,1.7215,1.7148,1.7145,1.7082,1.705,1.7058,1.7023,1.7001,1.6991,1.696,1.6948,1.6913,1.6931,1.6918,1.6891,1.6877,1.684,1.6881,1.6835,1.6834,1.6842,1.6766,1.6756,1.6695,1.6791,1.679,1.6788,0,1.7132,1.7105,1.7041,1.7017,1.7003,1.6972,1.694,1.6912,1.6886,1.6881,1.6858,1.6859,1.6818,1.6844,1.6787,1.6815,1.6796,1.6786,1.6784,1.6778,1.6807,1.6758,1.6676,1.6666,1.6775,1.6776,1.6777,0,1.7082,1.703,1.6984,1.6971,1.6942,1.692,1.6906,1.6883,1.6862,1.6834,1.6821,1.6787,1.6769,1.6743,1.6734,1.6754,1.6677,1.6703,1.667,1.667,1.6652,1.6653,1.6565,1.6642,1.6642,1.6642,1.6642,0,1.7011,1.6971,1.6962,1.6933,1.6889,1.6885,1.684,1.6828,1.6807,1.6776,1.6781,1.6751,1.6743,1.6711,1.6704,1.6658,1.6649,1.6643,1.6641,1.6642,1.6643,1.6628,1.6632,1.664,1.664,1.6641,1.6641,0,1.6947,1.6939,1.689,1.6867,1.6861,1.6828,1.6808,1.6781,1.6772,1.6732,1.6723,1.6708,1.6671,1.6661,1.6616,1.6612,1.6557,1.656,1.6566,1.6565,1.6533,1.6536,1.6432,1.6418,1.6505,1.6504,1.6503,0,1.6902,1.6871,1.6846,1.6826,1.6812,1.678,1.676,1.6756,1.6734,1.6703,1.6679,1.6644,1.6615,1.6556,1.654,1.6506,1.6508,1.6474,1.6502,1.6504,1.6506,1.6508,1.6504,1.6468,1.6467,1.6466,1.6465,0,1.6822,1.682,1.6792,1.6762,1.6738,1.6713,1.669,1.6673,1.6665,1.6641,1.6604,1.6582,1.6538,1.6502,1.6468,1.6453,1.6457,1.6457,1.6447,1.6447,1.6452,1.6448,1.655,1.6459,1.6459,1.646,1.646,1.6461,1.6766,1.6739,1.6717,1.6685,1.6668,1.6646,1.6619,1.6608,1.6578,1.6542,1.6541,1.6502,1.6477,1.6432,1.6416,1.6384,1.6394,1.638,1.6376,1.6373,1.637,1.6458,1.6377,1.6378,1.6378,1.6378,1.6378,0,1.6686,1.6673,1.6643,1.6612,1.6586,1.6595,1.657,1.6547,1.6513,1.6491,1.6463,1.6421,1.6387,1.6369,1.6335,1.6312,1.6314,1.6303,1.6304,1.6301,1.6363,1.6375,1.6303,1.6303,1.6303,1.6303,1.6303,1.6303,1.6641,1.6597,1.6593,1.6539,1.6526,1.6488,1.6473,1.6453,1.6435,1.6389,1.6361,1.6351,1.633,1.6294,1.6263,1.6259,1.6245,1.6234,1.623,1.6289,1.6296,1.6304,1.6314,1.6231,1.6231,1.617,1.617,1.6169]}]]